Showing default

VELOX 1, 40057

Orbit data source: Space-Track

VELOX 1, 40057 is a payload satellite owned by NTU (SG) in SSO that was launched on Mon, 30 Jun 2014 UTC via a PSLV launch vehicle from the Sirharikota (SRI). Payload-class satellites include a variety of spacecraft equipped with specific instruments for various scientific and technological missions. These include communications satellites like Starlink; space stations such as the ISS; scientific satellites like the Hubble; Earth observation satellites from companies like Planet Labs, Umbra, and HawkEye 360; GPS; miniature CubeSats for education and research; and military/defense satellites.

Loading next visibility...
Identifier
40057, 2014-034E
Orbit
SSO
Country
Flag of UnknownUnknown / SING
Related business
Manufacturer
NTU
Mission
Non-operational Amateur Technology
Bus & Motor
CUBESAT 3U, Unknown motor
Mass
4.25 kg wet, 4.25 kg dry
Launch date (UTC)
2014-06-30 (11 years ago)
Launch vehicle
PSLV
Launch site
Sirharikota (SRI)
Object type
Payload
Rocket body
Debris
Shape & HBR
Box + 4 Pan, 0.2 m
Radar Cross Section
0.092 m², Medium (>0.1 m² and < 1m²)

Expand to show TLE details & history
Last TLE update: 11 hours ago

TLE from 11 hours ago
0 VELOX 1
1 40057U 14034E   25347.28891948  .00008042  00000-0  72929-3 0  9994
2 40057  98.2685 236.8728 0007635 155.9975 204.1602 14.95594983618797
Epoch: 2025-12-13T06:56Z
TLE epoch observation values (Epoch: 2025-12-13T06:56:02.643Z)
Latitude
0.00004°
Longitude
50.64345°
Altitude
588.407 km
Speed
7.563 km/s
True Right ascension
15h 47m 29s
True Declination
0° 00' 00"
Sunlit
Object was in daylight at epoch
Visualization orbit readout
Latitude
Unknown
Longitude
Unknown
Altitude
Unknown
Speed
Unknown
Apparent Right ascension
Unknown
Apparent Declination
Unknown
Sunlit
N/A
Visualization observer readout
Local Sidereal Time
16:39:04
Azimuth
Unknown
Elevation
Unknown
Doppler factor
Unknown
Orbital elements
Apogee altitude
582.874 km
Perigee altitude
572.253 km
Semi-major axis
6,955.701 km
Eccentricity
0.00076
Inclination
98.2685°
RAAN
236.8728°
Arg. of periapsis
155.9975°
True anomaly
204.12442°
Mean anomaly
204.1602°
Eccentric anomaly
204.14231°
Mean motion
3.74138 °/min
Orbital period
96.22 mins
BSTAR
0.00072929
Loading maneuver chart data...
Computing Atmospheric mass density...
Loading historical data...
Loading historical data...
Loading historical data...
Loading historical data...
Loading historical data...
Loading historical data...
Loading historical data...
Other satellites on launch #34 in the year 2014 (2014-06-30 UTC)

Documentation

Showing up to 5 results
|